CINOVEC Weather Reports


Display with metric or nautical units.
time (UTC)temp
F
wind
direction
speed
MPH
gust
MPH
rain 1hr
in
rain 24hr
in
rain mn
in
humidity
%
barometer
mb
20260902211728 54 240 5.0 0.0 0.00 0.00 0.00 87
20260902201729 54 270 6.0 0.0 0.00 0.00 0.00 93
20260902191929 57 50 2.0 0.0 0.00 0.00 0.00 82
20260902181728 57 10 3.0 0.0 0.00 0.00 0.00 82
20260902171928 61 360 2.0 0.0 0.00 0.00 0.00 72
20260902162131 63 340 3.0 0.0 0.00 0.00 0.00 72
20260902151728 66 300 5.0 0.0 0.00 0.00 0.00 59
20260902141929 64 360 3.0 0.0 0.00 0.00 0.00 63
20260902131928 63 120 5.0 0.0 0.00 0.00 0.00 67
20260902121728 63 150 6.0 0.0 0.00 0.00 0.00 67
20260902111929 61 230 6.0 0.0 0.00 0.00 0.00 72
20260902102032 63 220 8.0 15.0 0.00 0.00 0.00 63
20260902091728 61 230 9.0 0.0 0.00 0.00 0.00 67
20260902081929 59 230 8.0 0.0 0.00 0.00 0.00 72
20260902071828 55 230 7.0 0.0 0.00 0.00 0.00 82
20260902061729 52 250 6.0 0.0 0.00 0.00 0.00 99
20260902051912 50 240 8.0 0.0 0.00 0.00 0.00 99
20260902042032 50 260 10.0 0.0 0.00 0.00 0.00 99
20260902031728 52 230 6.0 0.0 0.00 0.00 0.00 93
20260902021929 54 240 5.0 0.0 0.00 0.00 0.00 93
20260902011928 54 270 3.0 0.0 0.00 0.00 0.00 93
20260902001729 54 290 6.0 0.0 0.00 0.00 0.00 93
20260901231913 55 260 8.0 0.0 0.00 0.00 0.00 82
20260901222031 57 240 7.0 0.0 0.00 0.00 0.00 76